Lid_Strength_Index
2 4 5 5 6 6 7 7 6 6 6 6 5 5 4 4 4 4 4 4 4 4 4 4 4 5 5 5 5 4 5 6 9 9 7 6 6 7 7 7 7 6 7
2 3 4 5 6 6 7 7 6 6 5 5 5 4 4 4 4 4 4 4 4 4 4 4 4 4 5 5 5 6 6 7 7 9 8 8 7 7 9 9 9 8 8
2 3 4 6 6 6 7 7 6 6 5 5 5 4 4 4 4 4 4 4 4 3 3 4 4 5 6 6 6 7 8 7 7 8 9 9 8 9 11 11 11 10 9
3 3 4 6 6 6 6 6 6 5 5 5 5 4 4 4 4 4 4 4 4 4 3 3 4 4 6 6 7 8 8 8 8 8 9 10 10 10 11 12 13 14 12
3 4 5 6 6 6 7 6 6 5 5 5 5 5 5 4 4 4 4 4 4 4 4 4 4 6 8 7 6 7 8 8 8 9 10 10 11 14 12 13 15 15 13
4 5 5 6 6 7 7 7 6 6 5 5 5 5 5 4 7 7 5 4 4 4 4 5 6 10 9 8 8 8 7 8 9 10 10 10 11 12 15 13 14 13 12
4 5 6 7 7 7 7 7 7 6 5 5 5 5 5 5 8 7 7 4 4 3 3 5 7 7 9 7 8 8 9 8 8 9 10 10 11 12 13 14 13 13 13
5 5 6 6 7 7 7 7 7 6 6 5 5 5 5 5 8 8 8 5 4 4 4 6 6 8 8 7 7 8 8 8 8 8 8 9 9 11 10 10 10 13 14
6 6 6 6 7 7 8 7 7 6 6 6 5 5 5 7 8 8 6 5 6 5 5 7 7 7 10 9 7 9 9 10 10 9 9 9 9 9 10 10 13 12 13
7 6 6 6 7 7 7 7 7 6 6 6 6 5 8 6 9 8 6 5 6 6 7 8 11 8 10 9 7 9 11 11 11 11 11 10 10 10 10 8 11 12 13
9 8 7 7 7 7 8 8 7 7 7 7 7 7 7 6 8 8 7 6 6 7 7 10 10 10 10 9 8 8 8 11 11 12 12 13 13 12 12 11 10 12 13
10 11 11 9 8 8 8 8 9 8 8 9 10 11 12 9 10 9 8 7 7 7 8 10 10 10 9 9 9 9 10 11 12 12 12 13 13 13 13 12 12 13 13
12 12 12 12 12 10 9 10 9 9 10 10 9 9 11 13 9 9 8 8 8 9 9 9 10 10 9 9 9 10 12 10 11 12 12 12 13 12 13 13 13 13 13
13 13 13 12 12 12 11 10 10 10 11 11 11 10 11 11 10 10 11 8 10 10 10 10 10 10 9 10 12 11 11 10 10 10 11 13 13 13 13 13 13 13 13
13 13 13 13 12 12 11 11 10 9 9 10 9 8 9 10 9 8 9 9 9 11 12 12 13 13 12 12 13 12 12 12 11 12 12 12 13 13 13 13 13 13 13
12 13 13 13 13 12 12 13 12 12 11 10 9 9 12 9 10 10 9 9 10 11 13 13 13 12 11 12 12 12 13 12 12 12 12 12 12 12 13 13 13 13 13
12 12 13 13 13 13 13 12 13 13 11 11 11 12 11 10 11 10 10 10 11 10 12 12 11 11 12 12 12 12 12 12 12 11 11 12 12 12 13 13 13 13 13
13 13 13 13 13 12 12 13 13 12 12 13 13 12 12 12 11 10 10 10 12 12 12 12 12 11 12 12 12 12 13 13 12 12 12 12 12 12 13 13 12 13 13
13 13 13 13 13 13 13 13 12 13 13 14 14 13 13 11 10 10 10 10 11 11 11 12 11 12 12 12 12 12 12 13 12 12 12 12 13 12 12 12 12 12 13
14 13 13 13 13 13 13 13 13 13 13 13 13 13 14 14 13 12 11 11 11 11 11 11 11 11 12 12 12 12 12 13 13 13 13 13 13 13 12 12 12 12 12
14 14 13 13 13 13 13 13 13 13 13 13 13 13 12 12 12 13 13 12 12 12 11 11 11 12 12 12 12 12 12 12 12 13 13 13 13 13 12 12 13 13 13
14 13 13 13 13 13 13 12 12 12 12 12 13 13 11 12 12 12 12 12 12 12 12 12 11 12 12 11 12 12 12 12 13 12 13 13 13 13 13 13 13 13 13
13 13 13 13 12 12 12 12 12 12 12 12 12 12 11 12 12 12 12 12 12 12 12 12 12 12 12 11 11 11 11 12 12 12 12 13 13 13 13 13 13 13 13
12 13 13 13 13 13 13 12 12 12 12 12 12 12 11 11 12 11 11 11 12 12 12 12 12 12 12 12 12 12 11 11 12 12 12 12 13 13 13 13 13 13 13
11 12 12 12 12 12 12 12 13 12 12 12 12 12 12 12 11 11 11 11 11 11 11 11 11 11 12 11 12 12 12 13 12 12 12 12 12 12 12 12 13 13 13
11 11 11 11 11 11 11 12 12 12 12 12 12 11 11 11 11 11 11 11 11 11 11 11 11 11 11 11 11 12 12 13 12 12 12 12 12 12 12 12 12 12 13